User: anonymous   Login
Location: Unspecified
(34.4480°N, 0.0000°E)
Time: 13:55:26
(UTC+00:00)
Language:

DELFI C3 - Orbit

View from above orbital plane
View from above orbital plane
View from above satellite
View from above satellite

Ground track
Ground track

The orbit data is extracted from the following two-line orbital elements,

1 32789U 08021G   20024.57346343 +.00000496 +00000-0 +36716-4 0  9999
2 32789 097.4382 072.3134 0013727 093.3277 266.9522 15.07405175639987
Epoch (UTC): 24 January 2020 13:45:47
Eccentricity: 0.0013727
inclination: 97.4382°
perigee height: 534 km
apogee height: 553 km
right ascension of ascending node: 72.3134°
argument of perigee: 93.3277°
revolutions per day: 15.07405175
mean anomaly at epoch: 266.9522°
orbit number at epoch: 63998

The dashed part of the orbit path shows where the satellite is in the earth's shadow,  

DLR